Year,Month,Day,Hour,Minute,Value (Times are PST for temperature in C)
2020,04,27,00,00,9.70
2020,04,27,00,01,9.70
2020,04,27,00,02,9.70
2020,04,27,00,03,9.70
2020,04,27,00,04,9.70
2020,04,27,00,05,9.70
2020,04,27,00,06,9.70
2020,04,27,00,07,9.70
2020,04,27,00,08,9.70
2020,04,27,00,09,9.70
2020,04,27,00,10,9.70
2020,04,27,00,11,9.70
2020,04,27,00,12,9.70
2020,04,27,00,13,9.70
2020,04,27,00,14,9.70
2020,04,27,00,15,9.70
2020,04,27,00,16,9.70
2020,04,27,00,17,9.70
2020,04,27,00,18,9.70
2020,04,27,00,19,9.70
2020,04,27,00,20,9.70
2020,04,27,00,21,9.70
2020,04,27,00,22,9.70
2020,04,27,00,23,9.70
2020,04,27,00,24,9.70
2020,04,27,00,25,9.70
2020,04,27,00,26,9.70
2020,04,27,00,27,9.70
2020,04,27,00,28,9.70
2020,04,27,00,29,9.70
2020,04,27,00,30,9.70
2020,04,27,00,31,9.70
2020,04,27,00,32,9.70
2020,04,27,00,33,9.70
2020,04,27,00,34,9.70
2020,04,27,00,35,9.70
2020,04,27,00,36,9.70
2020,04,27,00,37,9.70
2020,04,27,00,38,9.70
2020,04,27,00,39,9.70
2020,04,27,00,40,9.70
2020,04,27,00,41,9.70
2020,04,27,00,42,9.70
2020,04,27,00,43,9.70
2020,04,27,00,44,9.70
2020,04,27,00,45,9.70
2020,04,27,00,46,9.60
2020,04,27,00,47,9.60
2020,04,27,00,48,9.60
2020,04,27,00,49,9.60
2020,04,27,00,50,9.60
2020,04,27,00,51,9.60
2020,04,27,00,52,9.60
2020,04,27,00,53,9.60
2020,04,27,00,54,9.60
2020,04,27,00,55,9.60
2020,04,27,00,56,9.60
2020,04,27,00,57,9.60
2020,04,27,00,58,9.60
2020,04,27,00,59,9.60
2020,04,27,01,00,9.60
2020,04,27,01,01,9.50
2020,04,27,01,02,9.50
2020,04,27,01,03,9.60
2020,04,27,01,04,9.60
2020,04,27,01,05,9.60
2020,04,27,01,06,9.60
2020,04,27,01,07,9.60
2020,04,27,01,08,9.60
2020,04,27,01,09,9.50
2020,04,27,01,10,9.50
2020,04,27,01,11,9.50
2020,04,27,01,12,9.50
2020,04,27,01,13,9.50
2020,04,27,01,14,9.50
2020,04,27,01,15,9.40
2020,04,27,01,16,9.50
2020,04,27,01,17,9.50
2020,04,27,01,18,9.40
2020,04,27,01,19,9.40
2020,04,27,01,20,9.50
2020,04,27,01,21,9.50
2020,04,27,01,22,9.50
2020,04,27,01,23,9.50
2020,04,27,01,24,9.40
2020,04,27,01,25,9.50
2020,04,27,01,26,9.40
2020,04,27,01,27,9.50
2020,04,27,01,28,9.50
2020,04,27,01,29,9.50
2020,04,27,01,30,9.40
2020,04,27,01,31,9.40
2020,04,27,01,32,9.50
2020,04,27,01,33,9.50
2020,04,27,01,34,9.50
2020,04,27,01,35,9.50
2020,04,27,01,36,9.50
2020,04,27,01,37,9.50
2020,04,27,01,38,9.50
2020,04,27,01,39,9.50
2020,04,27,01,40,9.50
2020,04,27,01,41,9.50
2020,04,27,01,42,9.50
2020,04,27,01,43,9.50
2020,04,27,01,44,9.50
2020,04,27,01,45,9.50
2020,04,27,01,46,9.50
2020,04,27,01,47,9.50
2020,04,27,01,48,9.50
2020,04,27,01,49,9.50
2020,04,27,01,50,9.50
2020,04,27,01,51,9.50
2020,04,27,01,52,9.50
2020,04,27,01,53,9.50
2020,04,27,01,54,9.50
2020,04,27,01,55,9.50
2020,04,27,01,56,9.50
2020,04,27,01,57,9.50
2020,04,27,01,58,9.50
2020,04,27,01,59,9.50
2020,04,27,02,00,9.50
2020,04,27,02,01,9.50
2020,04,27,02,02,9.50
2020,04,27,02,03,9.50
2020,04,27,02,04,9.50
2020,04,27,02,05,9.50
2020,04,27,02,06,9.50
2020,04,27,02,07,9.50
2020,04,27,02,08,9.50
2020,04,27,02,09,9.50
2020,04,27,02,10,9.50
2020,04,27,02,11,9.50
2020,04,27,02,12,9.50
2020,04,27,02,13,9.50
2020,04,27,02,14,9.50
2020,04,27,02,15,9.50
2020,04,27,02,16,9.50
2020,04,27,02,17,9.50
2020,04,27,02,18,9.50
2020,04,27,02,19,9.50
2020,04,27,02,20,9.50
2020,04,27,02,21,9.50
2020,04,27,02,22,9.40
2020,04,27,02,23,9.40
2020,04,27,02,24,9.40
2020,04,27,02,25,9.40
2020,04,27,02,26,9.40
2020,04,27,02,27,9.40
2020,04,27,02,28,9.40
2020,04,27,02,29,9.40
2020,04,27,02,30,9.40
2020,04,27,02,31,9.40
2020,04,27,02,32,9.40
2020,04,27,02,33,9.40
2020,04,27,02,34,9.40
2020,04,27,02,35,9.40
2020,04,27,02,36,9.40
2020,04,27,02,37,9.40
2020,04,27,02,38,9.30
2020,04,27,02,39,9.30
2020,04,27,02,40,9.30
2020,04,27,02,41,9.30
2020,04,27,02,42,9.30
2020,04,27,02,43,9.30
2020,04,27,02,44,9.30
2020,04,27,02,45,9.30
2020,04,27,02,46,9.30
2020,04,27,02,47,9.30
2020,04,27,02,48,9.30
2020,04,27,02,49,9.30
2020,04,27,02,50,9.30
2020,04,27,02,51,9.30
2020,04,27,02,52,9.30
2020,04,27,02,53,9.30
2020,04,27,02,54,9.20
2020,04,27,02,55,9.20
2020,04,27,02,56,9.20
2020,04,27,02,57,9.20
2020,04,27,02,58,9.20
2020,04,27,02,59,9.20
2020,04,27,03,00,9.20
2020,04,27,03,01,9.20
2020,04,27,03,02,9.20
2020,04,27,03,03,9.20
2020,04,27,03,04,9.20
2020,04,27,03,05,9.20
2020,04,27,03,06,9.20
2020,04,27,03,07,9.20
2020,04,27,03,08,9.20
2020,04,27,03,09,9.10
2020,04,27,03,10,9.10
2020,04,27,03,11,9.10
2020,04,27,03,12,9.10
2020,04,27,03,13,9.10
2020,04,27,03,14,9.10
2020,04,27,03,15,9.10
2020,04,27,03,16,9.10
2020,04,27,03,17,9.10
2020,04,27,03,18,9.10
2020,04,27,03,19,9.10
2020,04,27,03,20,9.10
2020,04,27,03,21,9.10
2020,04,27,03,22,9.10
2020,04,27,03,23,9.10
2020,04,27,03,24,9.10
2020,04,27,03,25,9.10
2020,04,27,03,26,9.10
2020,04,27,03,27,9.10
2020,04,27,03,28,9.10
2020,04,27,03,29,9.10
2020,04,27,03,30,9.10
2020,04,27,03,31,9.10
2020,04,27,03,32,9.10
2020,04,27,03,33,9.10
2020,04,27,03,34,9.10
2020,04,27,03,35,9.10
2020,04,27,03,36,9.10
2020,04,27,03,37,9.10
2020,04,27,03,38,9.10
2020,04,27,03,39,9.10
2020,04,27,03,40,9.10
2020,04,27,03,41,9.10
2020,04,27,03,42,9.10
2020,04,27,03,43,9.10
2020,04,27,03,44,9.10
2020,04,27,03,45,9.10
2020,04,27,03,46,9.10
2020,04,27,03,47,9.10
2020,04,27,03,48,9.20
2020,04,27,03,49,9.20
2020,04,27,03,50,9.20
2020,04,27,03,51,9.20
2020,04,27,03,52,9.20
2020,04,27,03,53,9.20
2020,04,27,03,54,9.20
2020,04,27,03,55,9.20
2020,04,27,03,56,9.20
2020,04,27,03,57,9.20
2020,04,27,03,58,9.20
2020,04,27,03,59,9.20
2020,04,27,04,00,9.20
2020,04,27,04,01,9.20
2020,04,27,04,02,9.20
2020,04,27,04,03,9.20
2020,04,27,04,04,9.20
2020,04,27,04,05,9.20
2020,04,27,04,06,9.30
2020,04,27,04,07,9.30
2020,04,27,04,08,9.20
2020,04,27,04,09,9.30
2020,04,27,04,10,9.30
2020,04,27,04,11,9.20
2020,04,27,04,12,9.30
2020,04,27,04,13,9.30
2020,04,27,04,14,9.30
2020,04,27,04,15,9.30
2020,04,27,04,16,9.30
2020,04,27,04,17,9.30
2020,04,27,04,18,9.30
2020,04,27,04,19,9.30
2020,04,27,04,20,9.30
2020,04,27,04,21,9.30
2020,04,27,04,22,9.30
2020,04,27,04,23,9.30
2020,04,27,04,24,9.30
2020,04,27,04,25,9.30
2020,04,27,04,26,9.30
2020,04,27,04,27,9.30
2020,04,27,04,28,9.30
2020,04,27,04,29,9.30
2020,04,27,04,30,9.30
2020,04,27,04,31,9.30
2020,04,27,04,32,9.30
2020,04,27,04,33,9.30
2020,04,27,04,34,9.30
2020,04,27,04,35,9.30
2020,04,27,04,36,9.30
2020,04,27,04,37,9.30
2020,04,27,04,38,9.30
2020,04,27,04,39,9.30
2020,04,27,04,40,9.30
2020,04,27,04,41,9.30
2020,04,27,04,42,9.30
2020,04,27,04,43,9.40
2020,04,27,04,44,9.40
2020,04,27,04,45,9.40
2020,04,27,04,46,9.40
2020,04,27,04,47,9.40
2020,04,27,04,48,9.40
2020,04,27,04,49,9.40
2020,04,27,04,50,9.40
2020,04,27,04,51,9.40
2020,04,27,04,52,9.40
2020,04,27,04,53,9.40
2020,04,27,04,54,9.40
2020,04,27,04,55,9.40
2020,04,27,04,56,9.40
2020,04,27,04,57,9.40
2020,04,27,04,58,9.40
2020,04,27,04,59,9.40
2020,04,27,05,00,9.40
2020,04,27,05,01,9.40
2020,04,27,05,02,9.40
2020,04,27,05,03,9.40
2020,04,27,05,04,9.40
2020,04,27,05,05,9.40
2020,04,27,05,06,9.40
2020,04,27,05,07,9.40
2020,04,27,05,08,9.40
2020,04,27,05,09,9.40
2020,04,27,05,10,9.40
2020,04,27,05,11,9.40
2020,04,27,05,12,9.30
2020,04,27,05,13,9.30
2020,04,27,05,14,9.30
2020,04,27,05,15,9.30
2020,04,27,05,16,9.30
2020,04,27,05,17,9.40
2020,04,27,05,18,9.40
2020,04,27,05,19,9.40
2020,04,27,05,20,9.40
2020,04,27,05,21,9.40
2020,04,27,05,22,9.40
2020,04,27,05,23,9.40
2020,04,27,05,24,9.40
2020,04,27,05,25,9.40
2020,04,27,05,26,9.40
2020,04,27,05,27,9.40
2020,04,27,05,28,9.30
2020,04,27,05,29,9.30
2020,04,27,05,30,9.30
2020,04,27,05,31,9.30
2020,04,27,05,32,9.30
2020,04,27,05,33,9.30
2020,04,27,05,34,9.30
2020,04,27,05,35,9.30
2020,04,27,05,36,9.30
2020,04,27,05,37,9.30
2020,04,27,05,38,9.30
2020,04,27,05,39,9.30
2020,04,27,05,40,9.30
2020,04,27,05,41,9.30
2020,04,27,05,42,9.30
2020,04,27,05,43,9.30
2020,04,27,05,44,9.30
2020,04,27,05,45,9.30
2020,04,27,05,46,9.30
2020,04,27,05,47,9.30
2020,04,27,05,48,9.30
2020,04,27,05,49,9.30
2020,04,27,05,50,9.30
2020,04,27,05,51,9.30
2020,04,27,05,52,9.30
2020,04,27,05,53,9.30
2020,04,27,05,54,9.30
2020,04,27,05,55,9.30
2020,04,27,10,10,12.80
2020,04,27,10,11,12.80
2020,04,27,10,12,12.80
2020,04,27,10,13,12.80
2020,04,27,10,14,12.80
2020,04,27,10,15,12.80
2020,04,27,10,16,12.80
2020,04,27,10,17,12.80
2020,04,27,10,18,12.80
2020,04,27,10,19,12.80
2020,04,27,10,20,12.80
2020,04,27,10,21,12.80
2020,04,27,10,22,12.80
2020,04,27,10,23,12.80
2020,04,27,10,24,12.80
2020,04,27,10,25,12.90
2020,04,27,10,26,12.90
2020,04,27,10,27,12.90
2020,04,27,10,28,12.90
2020,04,27,10,29,12.90
2020,04,27,10,30,12.90
2020,04,27,10,31,13.00
2020,04,27,10,32,13.00
2020,04,27,10,33,13.00
2020,04,27,10,34,13.00
2020,04,27,10,35,13.10
2020,04,27,10,36,13.10
2020,04,27,10,37,13.10
2020,04,27,10,38,13.10
2020,04,27,10,39,13.10
2020,04,27,10,40,13.10
2020,04,27,10,41,13.10
2020,04,27,10,42,13.10
2020,04,27,10,43,13.20
2020,04,27,10,44,13.20
2020,04,27,10,45,13.20
2020,04,27,10,46,13.20
2020,04,27,10,47,13.20
2020,04,27,10,48,13.20
2020,04,27,10,49,13.20
2020,04,27,10,50,13.20
2020,04,27,10,51,13.20
2020,04,27,10,52,13.30
2020,04,27,10,53,13.30
2020,04,27,10,54,13.30
2020,04,27,10,55,13.30
2020,04,27,10,56,13.40
2020,04,27,10,57,13.40
2020,04,27,10,58,13.40
2020,04,27,10,59,13.40
2020,04,27,11,00,13.40
2020,04,27,11,01,13.50
2020,04,27,11,02,13.50
2020,04,27,11,03,13.50
2020,04,27,11,04,13.50
2020,04,27,11,05,13.50
2020,04,27,11,06,13.60
2020,04,27,11,07,13.60
2020,04,27,11,08,13.60
2020,04,27,11,09,13.70
2020,04,27,11,10,13.70
2020,04,27,11,11,13.70
2020,04,27,11,12,13.70
2020,04,27,11,13,13.70
2020,04,27,11,14,13.70
2020,04,27,11,15,13.70
2020,04,27,11,16,13.60
2020,04,27,11,17,13.60
2020,04,27,11,18,13.50
2020,04,27,11,19,13.40
2020,04,27,11,20,13.40
2020,04,27,11,21,13.30
2020,04,27,11,22,13.20
2020,04,27,11,23,13.20
2020,04,27,11,24,13.10
2020,04,27,11,25,13.00
2020,04,27,11,26,13.00
2020,04,27,11,27,12.90
2020,04,27,11,28,12.90
2020,04,27,11,29,12.90
2020,04,27,11,30,12.90
2020,04,27,11,31,12.90
2020,04,27,11,32,12.90
2020,04,27,11,33,12.80
2020,04,27,11,34,12.80
2020,04,27,11,35,12.80
2020,04,27,11,36,12.80
2020,04,27,11,37,12.80
2020,04,27,11,38,12.80
2020,04,27,11,39,12.80
2020,04,27,11,40,12.80
2020,04,27,11,41,12.80
2020,04,27,11,42,12.80
2020,04,27,11,43,12.80
2020,04,27,11,44,12.80
2020,04,27,11,45,12.70
2020,04,27,11,46,12.70
2020,04,27,11,47,12.60
2020,04,27,11,48,12.50
2020,04,27,11,49,12.50
2020,04,27,11,50,12.40
2020,04,27,11,51,12.30
2020,04,27,11,52,12.30
2020,04,27,11,53,12.20
2020,04,27,11,54,12.20
2020,04,27,11,55,12.10
2020,04,27,11,56,12.10
2020,04,27,11,57,12.10
2020,04,27,11,58,12.10
2020,04,27,11,59,12.00
2020,04,27,12,00,11.90
2020,04,27,12,01,11.90
2020,04,27,12,02,11.90
2020,04,27,12,03,11.90
2020,04,27,12,04,11.90
2020,04,27,12,05,11.90
2020,04,27,12,06,11.90
2020,04,27,12,07,11.90
2020,04,27,12,08,11.90
2020,04,27,12,09,11.90
2020,04,27,12,10,12.00
2020,04,27,12,11,12.00
2020,04,27,12,12,12.00
2020,04,27,12,13,12.10
2020,04,27,12,14,12.10
2020,04,27,12,15,12.10
2020,04,27,12,16,12.10
2020,04,27,12,17,12.10
2020,04,27,12,18,12.10
2020,04,27,12,19,12.20
2020,04,27,12,20,12.20
2020,04,27,12,21,12.20
2020,04,27,12,22,12.20
2020,04,27,12,23,12.20
2020,04,27,12,24,12.30
2020,04,27,12,25,12.30
2020,04,27,12,26,12.30
2020,04,27,12,27,12.30
2020,04,27,12,28,12.30
2020,04,27,12,29,12.30
2020,04,27,12,30,12.30
2020,04,27,12,31,12.30
2020,04,27,12,32,12.30
2020,04,27,12,33,12.30
2020,04,27,12,34,12.30
2020,04,27,15,42,13.80
2020,04,27,15,43,13.70
2020,04,27,15,44,13.70
2020,04,27,15,45,13.70
2020,04,27,15,46,13.70
2020,04,27,15,47,13.60
2020,04,27,15,48,13.60
2020,04,27,15,49,13.60
2020,04,27,15,50,13.70
2020,04,27,15,51,13.80
2020,04,27,15,52,13.80
2020,04,27,15,53,13.70
2020,04,27,15,54,13.70
2020,04,27,15,55,13.70
2020,04,27,15,56,13.70
2020,04,27,15,57,13.70
2020,04,27,15,58,13.70
2020,04,27,15,59,13.80
2020,04,27,16,00,13.80
2020,04,27,16,01,13.80
2020,04,27,16,02,13.80
2020,04,27,16,03,13.80
2020,04,27,16,04,13.80
2020,04,27,16,05,13.80
2020,04,27,16,06,13.80
2020,04,27,16,07,13.80
2020,04,27,16,08,13.80
2020,04,27,16,09,13.90
2020,04,27,16,10,13.90
2020,04,27,16,11,13.90
2020,04,27,16,12,13.90
2020,04,27,16,13,13.90
2020,04,27,16,14,13.80
2020,04,27,16,15,13.80
2020,04,27,16,16,13.80
2020,04,27,16,17,13.80
2020,04,27,16,18,13.70
2020,04,27,16,19,13.70
2020,04,27,16,20,13.70
2020,04,27,16,21,13.70
2020,04,27,16,22,13.70
2020,04,27,16,23,13.70
2020,04,27,16,24,13.70
2020,04,27,16,25,13.70
2020,04,27,16,26,13.60
2020,04,27,16,27,13.50
2020,04,27,16,28,13.50
2020,04,27,16,29,13.50
2020,04,27,16,30,13.40
2020,04,27,16,31,13.40
2020,04,27,16,32,13.40
2020,04,27,16,33,13.40
2020,04,27,16,34,13.30
2020,04,27,16,35,13.30
2020,04,27,16,36,13.30
2020,04,27,16,37,13.20
2020,04,27,16,38,13.20
2020,04,27,16,39,13.20
2020,04,27,16,40,13.20
2020,04,27,16,41,13.30
2020,04,27,16,42,13.30
2020,04,27,16,43,13.30
2020,04,27,16,44,13.40
2020,04,27,16,45,13.40
2020,04,27,16,46,13.40
2020,04,27,16,47,13.40
2020,04,27,16,48,13.40
2020,04,27,16,49,13.50
2020,04,27,16,50,13.50
2020,04,27,16,51,13.50
2020,04,27,16,52,13.50
2020,04,27,16,53,13.60
2020,04,27,16,54,13.50
2020,04,27,16,55,13.60
2020,04,27,16,56,13.60
2020,04,27,16,57,13.60
2020,04,27,16,58,13.60
2020,04,27,16,59,13.60
2020,04,27,17,00,13.60
2020,04,27,17,01,13.60
2020,04,27,17,02,13.60
2020,04,27,17,03,13.60
2020,04,27,17,04,13.60
2020,04,27,17,05,13.60
2020,04,27,17,06,13.60
2020,04,27,17,07,13.60
2020,04,27,17,08,13.60
2020,04,27,17,09,13.60
2020,04,27,17,10,13.60
2020,04,27,17,11,13.60
2020,04,27,17,12,13.60
2020,04,27,17,13,13.60
2020,04,27,17,14,13.60
2020,04,27,17,15,13.60
2020,04,27,17,16,13.60
2020,04,27,17,17,13.70
2020,04,27,17,18,13.70
2020,04,27,17,19,13.60
2020,04,27,17,20,13.60
2020,04,27,17,21,13.60
2020,04,27,17,22,13.70
2020,04,27,17,23,13.60
2020,04,27,17,24,13.70
2020,04,27,17,25,13.70
2020,04,27,17,26,13.60
2020,04,27,17,27,13.60
2020,04,27,17,28,13.60
2020,04,27,17,29,13.60
2020,04,27,17,30,13.60
2020,04,27,17,31,13.60
2020,04,27,17,32,13.60
2020,04,27,17,33,13.60
2020,04,27,17,34,13.60
2020,04,27,17,35,13.60
2020,04,27,17,36,13.60
2020,04,27,17,37,13.60
2020,04,27,17,38,13.60
2020,04,27,17,39,13.60
2020,04,27,17,40,13.50
2020,04,27,17,41,13.50
2020,04,27,17,42,13.50
2020,04,27,17,43,13.40
2020,04,27,17,44,13.40
2020,04,27,17,45,13.40
2020,04,27,17,46,13.40
2020,04,27,17,47,13.40
2020,04,27,17,48,13.40
2020,04,27,17,49,13.40
2020,04,27,17,50,13.30
2020,04,27,17,51,13.30
2020,04,27,17,52,13.30
2020,04,27,17,53,13.30
2020,04,27,17,54,13.30
2020,04,27,17,55,13.30
2020,04,27,17,56,13.30
2020,04,27,17,57,13.30
2020,04,27,17,58,13.30
2020,04,27,17,59,13.30
2020,04,27,18,00,13.30
2020,04,27,18,01,13.30
2020,04,27,18,02,13.30
2020,04,27,18,03,13.30
2020,04,27,18,04,13.30
2020,04,27,18,05,13.30
2020,04,27,18,06,13.30
2020,04,27,18,07,13.30
2020,04,27,18,08,13.30
2020,04,27,18,09,13.30
2020,04,27,18,10,13.30
2020,04,27,18,11,13.30
2020,04,27,18,12,13.30
2020,04,27,18,13,13.40
2020,04,27,18,14,13.40
2020,04,27,18,15,13.40
2020,04,27,18,16,13.40
2020,04,27,18,17,13.40
2020,04,27,18,18,13.40
2020,04,27,18,19,13.40
2020,04,27,18,20,13.50
2020,04,27,18,21,13.50
2020,04,27,18,22,13.50
2020,04,27,18,23,13.50
2020,04,27,18,24,13.50
2020,04,27,18,25,13.50
2020,04,27,18,26,13.50
2020,04,27,18,27,13.50
2020,04,27,18,28,13.50
2020,04,27,18,29,13.40
2020,04,27,18,30,13.40
2020,04,27,18,31,13.40
2020,04,27,18,32,13.40
2020,04,27,18,33,13.40
2020,04,27,18,34,13.40
2020,04,27,18,35,13.40
2020,04,27,18,36,13.40
2020,04,27,18,37,13.40
2020,04,27,18,38,13.40
2020,04,27,18,39,13.50
2020,04,27,18,40,13.50
2020,04,27,18,41,13.50
2020,04,27,18,42,13.50
2020,04,27,18,43,13.60
2020,04,27,18,44,13.60
2020,04,27,18,45,13.70
2020,04,27,18,46,13.70
2020,04,27,18,47,13.70
2020,04,27,18,48,13.70
2020,04,27,18,49,13.60
2020,04,27,18,50,13.50
2020,04,27,18,51,13.40
2020,04,27,18,52,13.30
2020,04,27,18,53,13.30
2020,04,27,18,54,13.30
2020,04,27,18,55,13.30
2020,04,27,18,56,13.30
2020,04,27,18,57,13.30
2020,04,27,18,58,13.30
2020,04,27,18,59,13.30
2020,04,27,19,00,13.30
2020,04,27,19,01,13.30
2020,04,27,19,02,13.30
2020,04,27,19,03,13.30
2020,04,27,19,04,13.40
2020,04,27,19,05,13.40
2020,04,27,19,06,13.30
2020,04,27,19,07,13.40
2020,04,27,19,08,13.40
2020,04,27,19,09,13.40
2020,04,27,19,10,13.40
2020,04,27,19,11,13.40
2020,04,27,19,12,13.30
2020,04,27,19,13,13.30
2020,04,27,19,14,13.30
2020,04,27,19,15,13.30
2020,04,27,19,16,13.20
2020,04,27,19,17,13.20
2020,04,27,19,18,13.20
2020,04,27,19,19,13.20
2020,04,27,19,20,13.20
2020,04,27,19,21,13.30
2020,04,27,19,22,13.30
2020,04,27,19,23,13.20
2020,04,27,19,24,13.30
2020,04,27,19,25,13.20
2020,04,27,19,26,13.20
2020,04,27,19,27,13.20
2020,04,27,19,28,13.20
2020,04,27,19,29,13.20
2020,04,27,19,30,13.20
2020,04,27,19,31,13.20
2020,04,27,19,32,13.20
2020,04,27,19,33,13.10
2020,04,27,19,34,13.10
2020,04,27,19,35,13.10
2020,04,27,19,36,13.10
2020,04,27,19,37,13.10
2020,04,27,19,38,13.00
2020,04,27,19,39,13.00
2020,04,27,19,40,13.00
2020,04,27,19,41,13.00
2020,04,27,19,42,13.00
2020,04,27,19,43,13.00
2020,04,27,19,44,13.00
2020,04,27,19,45,12.90
2020,04,27,19,46,12.90
2020,04,27,19,47,12.90
2020,04,27,19,48,12.90
2020,04,27,19,49,12.90
2020,04,27,19,50,12.90
2020,04,27,19,51,12.80
2020,04,27,19,52,12.80
2020,04,27,19,53,12.80
2020,04,27,19,54,12.80
2020,04,27,19,55,12.80
2020,04,27,19,56,12.80
2020,04,27,19,57,12.80
2020,04,27,19,58,12.80
2020,04,27,19,59,12.70
2020,04,27,20,00,12.70
2020,04,27,20,01,12.70
2020,04,27,20,02,12.70
2020,04,27,20,03,12.70
2020,04,27,20,04,12.60
2020,04,27,20,05,12.60
2020,04,27,20,06,12.60
2020,04,27,20,07,12.60
2020,04,27,20,08,12.50
2020,04,27,20,09,12.50
2020,04,27,20,10,12.50
2020,04,27,20,11,12.50
2020,04,27,20,12,12.40
2020,04,27,20,13,12.40
2020,04,27,20,14,12.40
2020,04,27,20,15,12.40
2020,04,27,20,16,12.30
2020,04,27,20,17,12.30
2020,04,27,20,18,12.30
2020,04,27,20,19,12.30
2020,04,27,20,20,12.30
2020,04,27,20,21,12.30
2020,04,27,20,22,12.30
2020,04,27,20,23,12.30
2020,04,27,20,24,12.30
2020,04,27,20,25,12.30
2020,04,27,20,26,12.20
2020,04,27,20,27,12.20
2020,04,27,20,28,12.20
2020,04,27,20,29,12.20
2020,04,27,20,30,12.20
2020,04,27,20,31,12.20
2020,04,27,20,32,12.20
2020,04,27,20,33,12.20
2020,04,27,20,34,12.10
2020,04,27,20,35,12.10
2020,04,27,20,36,12.10
2020,04,27,20,37,12.10
2020,04,27,20,38,12.10
2020,04,27,20,39,12.10
2020,04,27,20,40,12.10
2020,04,27,20,41,12.10
2020,04,27,20,42,12.10
2020,04,27,20,43,12.10
2020,04,27,20,44,12.10
2020,04,27,20,45,12.10
2020,04,27,20,46,12.00
2020,04,27,20,47,12.00
2020,04,27,20,48,12.00
2020,04,27,20,49,12.00
2020,04,27,20,50,12.00
2020,04,27,20,51,12.00
2020,04,27,20,52,12.00
2020,04,27,20,53,11.90
2020,04,27,20,54,11.90
2020,04,27,20,55,11.90
2020,04,27,20,56,11.90
2020,04,27,20,57,11.90
2020,04,27,20,58,11.90
2020,04,27,20,59,11.90
2020,04,27,21,00,11.80
2020,04,27,21,01,11.80
2020,04,27,21,02,11.80
2020,04,27,21,03,11.80
2020,04,27,21,04,11.80
2020,04,27,21,05,11.80
2020,04,27,21,06,11.80
2020,04,27,21,07,11.80
2020,04,27,21,08,11.80
2020,04,27,21,09,11.80
2020,04,27,21,10,11.80
2020,04,27,21,11,11.80
2020,04,27,21,12,11.80
2020,04,27,21,13,11.80
2020,04,27,21,14,11.80
2020,04,27,21,15,11.80
2020,04,27,21,16,11.70
2020,04,27,21,17,11.70
2020,04,27,21,18,11.70
2020,04,27,21,19,11.70
2020,04,27,21,20,11.70
2020,04,27,21,21,11.70
2020,04,27,21,22,11.70
2020,04,27,21,23,11.70
2020,04,27,21,24,11.70
2020,04,27,21,25,11.70
2020,04,27,21,26,11.70
2020,04,27,21,27,11.60
2020,04,27,21,28,11.60
2020,04,27,21,29,11.60
2020,04,27,21,30,11.60
2020,04,27,21,31,11.60
2020,04,27,21,32,11.60
2020,04,27,21,33,11.60
2020,04,27,21,34,11.60
2020,04,27,21,35,11.60
2020,04,27,21,36,11.60
2020,04,27,21,37,11.60
2020,04,27,21,38,11.50
2020,04,27,21,39,11.50
2020,04,27,21,40,11.50
2020,04,27,21,41,11.50
2020,04,27,21,42,11.50
2020,04,27,21,43,11.50
2020,04,27,21,44,11.50
2020,04,27,21,45,11.50
2020,04,27,21,46,11.50
2020,04,27,21,47,11.50
2020,04,27,21,48,11.50
2020,04,27,21,49,11.50
2020,04,27,21,50,11.50
2020,04,27,21,51,11.50
2020,04,27,21,52,11.50
2020,04,27,21,53,11.50
2020,04,27,21,54,11.50
2020,04,27,21,55,11.50
2020,04,27,21,56,11.50
2020,04,27,21,57,11.50
2020,04,27,21,58,11.50
2020,04,27,21,59,11.40
2020,04,27,22,00,11.40
2020,04,27,22,01,11.40
2020,04,27,22,02,11.40
2020,04,27,22,03,11.40
2020,04,27,22,04,11.40
2020,04,27,22,05,11.40
2020,04,27,22,06,11.40
2020,04,27,22,07,11.40
2020,04,27,22,08,11.30
2020,04,27,22,09,11.30
2020,04,27,22,10,11.30
2020,04,27,22,11,11.30
2020,04,27,22,12,11.30
2020,04,27,22,13,11.30
2020,04,27,22,14,11.30
2020,04,27,22,15,11.30
2020,04,27,22,16,11.30
2020,04,27,22,17,11.30
2020,04,27,22,18,11.30
2020,04,27,22,19,11.30
2020,04,27,22,20,11.30
2020,04,27,22,21,11.30
2020,04,27,22,22,11.30
2020,04,27,22,23,11.30
2020,04,27,22,24,11.20
2020,04,27,22,25,11.20
2020,04,27,22,26,11.20
2020,04,27,22,27,11.20
2020,04,27,22,28,11.20
2020,04,27,22,29,11.20
2020,04,27,22,30,11.20
2020,04,27,22,31,11.20
2020,04,27,22,32,11.20
2020,04,27,22,33,11.20
2020,04,27,22,34,11.10
2020,04,27,22,35,11.10
2020,04,27,22,36,11.10
2020,04,27,22,37,11.10
2020,04,27,22,38,11.10
2020,04,27,22,39,11.10
2020,04,27,22,40,11.10
2020,04,27,22,41,11.10
2020,04,27,22,42,11.10
2020,04,27,22,43,11.00
2020,04,27,22,44,11.00
2020,04,27,22,45,11.00
2020,04,27,22,46,10.90
2020,04,27,22,47,10.90
2020,04,27,22,48,10.90
2020,04,27,22,49,10.90
2020,04,27,22,50,10.90
2020,04,27,22,51,10.80
2020,04,27,22,52,10.80
2020,04,27,22,53,10.80
2020,04,27,22,54,10.80
2020,04,27,22,55,10.80
2020,04,27,22,56,10.80
2020,04,27,22,57,10.70
2020,04,27,22,58,10.70
2020,04,27,22,59,10.70
2020,04,27,23,00,10.70
2020,04,27,23,01,10.70
2020,04,27,23,02,10.70
2020,04,27,23,03,10.70
2020,04,27,23,04,10.70
2020,04,27,23,05,10.70
2020,04,27,23,06,10.70
2020,04,27,23,07,10.70
2020,04,27,23,08,10.70
2020,04,27,23,09,10.70
2020,04,27,23,10,10.60
2020,04,27,23,11,10.60
2020,04,27,23,12,10.70
2020,04,27,23,13,10.70
2020,04,27,23,14,10.60
2020,04,27,23,15,10.60
2020,04,27,23,16,10.60
2020,04,27,23,17,10.60
2020,04,27,23,18,10.60
2020,04,27,23,19,10.60
2020,04,27,23,20,10.60
2020,04,27,23,21,10.60
2020,04,27,23,22,10.60
2020,04,27,23,23,10.50
2020,04,27,23,24,10.50
2020,04,27,23,25,10.50
2020,04,27,23,26,10.50
2020,04,27,23,27,10.40
2020,04,27,23,28,10.40
2020,04,27,23,29,10.40
2020,04,27,23,30,10.30
2020,04,27,23,31,10.30
2020,04,27,23,32,10.30
2020,04,27,23,33,10.30
2020,04,27,23,34,10.20
2020,04,27,23,35,10.20
2020,04,27,23,36,10.20
2020,04,27,23,37,10.20
2020,04,27,23,38,10.10
2020,04,27,23,39,10.10
2020,04,27,23,40,10.10
2020,04,27,23,41,10.10
2020,04,27,23,42,10.10
2020,04,27,23,43,10.00
2020,04,27,23,44,10.00
2020,04,27,23,45,10.00
2020,04,27,23,46,10.00
2020,04,27,23,47,10.00
2020,04,27,23,48,9.90
2020,04,27,23,49,9.90
2020,04,27,23,50,9.90
2020,04,27,23,51,9.90
2020,04,27,23,52,9.90
2020,04,27,23,53,9.90
2020,04,27,23,54,9.90
2020,04,27,23,55,9.90
2020,04,27,23,56,9.90
2020,04,27,23,57,9.90
2020,04,27,23,58,9.90
2020,04,27,23,59,9.80
